QPF
0.03 0.04 0.04 0.06 0.05 0.03 0.02 0.02 0.03 0.04 0.06 0.06 0.06 0.08 0.09 0.09 0.09 0.04 0.01 0.02 0.03 0.04 0.05 0.04 0.04 0.03 0.03 0.03 0.03 0.03 0.02 0.02 0.02 0.01 0.01 0.01 0.01 0.01 0.01 0.01 0.01 0.01 0.01
0.03 0.03 0.03 0.04 0.04 0.02 0.03 0.02 0.03 0.04 0.04 0.04 0.04 0.05 0.06 0.07 0.13 0.06 0.02 0.02 0.03 0.03 0.04 0.05 0.04 0.03 0.03 0.02 0.03 0.03 0.02 0.03 0.02 0.01 0.01 0.01 0.01 0.01 0.01 0.01 0.01 0.01 0.01
0.03 0.03 0.02 0.02 0.03 0.02 0.03 0.03 0.03 0.03 0.03 0.03 0.04 0.04 0.05 0.07 0.11 0.07 0.04 0.03 0.02 0.03 0.05 0.05 0.05 0.05 0.04 0.04 0.03 0.03 0.04 0.03 0.02 0.01 0.01 0.01 0.01 0.01 0.01 0.02 0.02 0.01 0.00
0.05 0.03 0.02 0.02 0.02 0.03 0.02 0.03 0.03 0.03 0.06 0.04 0.05 0.06 0.06 0.06 0.07 0.06 0.04 0.03 0.03 0.03 0.04 0.05 0.06 0.07 0.05 0.05 0.05 0.04 0.03 0.03 0.03 0.03 0.02 0.02 0.01 0.01 0.01 0.01 0.01 0.01 0.01
0.06 0.03 0.02 0.01 0.01 0.02 0.02 0.02 0.02 0.03 0.05 0.04 0.03 0.05 0.05 0.05 0.06 0.06 0.06 0.04 0.05 0.05 0.03 0.04 0.06 0.06 0.06 0.06 0.07 0.07 0.04 0.03 0.04 0.03 0.02 0.02 0.02 0.02 0.02 0.02 0.02 0.01 0.01
0.03 0.02 0.01 0.01 0.01 0.01 0.01 0.02 0.02 0.02 0.03 0.04 0.05 0.06 0.07 0.08 0.09 0.09 0.07 0.06 0.05 0.05 0.04 0.04 0.03 0.03 0.05 0.05 0.05 0.06 0.06 0.05 0.04 0.04 0.03 0.02 0.02 0.02 0.01 0.01 0.02 0.02 0.01
0.04 0.03 0.02 0.01 0.01 0.01 0.01 0.01 0.02 0.02 0.02 0.03 0.05 0.06 0.07 0.08 0.08 0.08 0.06 0.06 0.07 0.06 0.06 0.05 0.03 0.03 0.03 0.03 0.03 0.04 0.06 0.07 0.06 0.04 0.04 0.04 0.03 0.03 0.02 0.02 0.02 0.02 0.02
0.03 0.02 0.02 0.01 0.01 0.01 0.01 0.01 0.01 0.01 0.01 0.01 0.02 0.03 0.04 0.04 0.03 0.04 0.04 0.04 0.06 0.07 0.06 0.03 0.03 0.03 0.03 0.02 0.02 0.03 0.04 0.05 0.06 0.06 0.06 0.05 0.04 0.03 0.03 0.03 0.03 0.02 0.02
0.02 0.03 0.04 0.02 0.01 0.01 0.01 0.01 0.01 0.01 0.01 0.01 0.01 0.01 0.01 0.01 0.02 0.03 0.04 0.03 0.02 0.03 0.04 0.03 0.03 0.03 0.01 0.01 0.02 0.02 0.02 0.02 0.03 0.04 0.04 0.04 0.03 0.03 0.03 0.03 0.03 0.03 0.02
0.02 0.03 0.02 0.01 0.01 0.01 0.01 0.01 0.00 0.00 0.00 0.00 0.01 0.01 0.01 0.01 0.01 0.01 0.02 0.02 0.02 0.01 0.02 0.02 0.03 0.02 0.01 0.02 0.02 0.01 0.01 0.01 0.01 0.01 0.02 0.02 0.01 0.01 0.01 0.02 0.02 0.03 0.03
0.01 0.01 0.01 0.01 0.01 0.01 0.01 0.00 0.01 0.00 0.00 0.01 0.01 0.01 0.01 0.00 0.00 0.01 0.01 0.02 0.02 0.01 0.00 0.01 0.01 0.01 0.01 0.01 0.01 0.00 0.00 0.00 0.00 0.00 0.00 0.00 0.00 0.01 0.01 0.01 0.02 0.02 0.03
0.02 0.01 0.02 0.02 0.01 0.01 0.01 0.01 0.01 0.00 0.00 0.00 0.01 0.00 0.01 0.00 0.00 0.00 0.00 0.00 0.01 0.01 0.00 0.00 0.00 0.00 0.00 0.00 0.00 0.00 0.00 0.00 0.00 0.00 0.00 0.00 0.00 0.00 0.01 0.01 0.01 0.01 0.02
0.02 0.01 0.02 0.03 0.01 0.01 0.01 0.01 0.00 0.00 0.00 0.00 0.00 0.00 0.00 0.00 0.00 0.00 0.00 0.00 0.00 0.00 0.00 0.00 0.00 0.00 0.00 0.00 0.00 0.00 0.00 0.00 0.00 0.00 0.00 0.00 0.00 0.00 0.00 0.00 0.00 0.01 0.01
0.04 0.03 0.02 0.02 0.02 0.01 0.01 0.01 0.01 0.00 0.00 0.00 0.00 0.00 0.00 0.00 0.00 0.00 0.00 0.00 0.00 0.00 0.00 0.00 0.00 0.00 0.00 0.00 0.00 0.00 0.00 0.00 0.00 0.00 0.00 0.00 0.00 0.00 0.00 0.00 0.00 0.00 0.00
0.04 0.03 0.03 0.02 0.02 0.02 0.01 0.01 0.00 0.00 0.00 0.00 0.00 0.00 0.00 0.00 0.00 0.00 0.00 0.00 0.00 0.00 0.00 0.00 0.00 0.00 0.00 0.00 0.00 0.00 0.00 0.00 0.00 0.00 0.00 0.00 0.00 0.00 0.00 0.00 0.00 0.00 0.00
0.03 0.03 0.03 0.03 0.02 0.02 0.01 0.01 0.01 0.01 0.00 0.00 0.00 0.00 0.00 0.00 0.00 0.00 0.00 0.00 0.00 0.00 0.00 0.00 0.00 0.00 0.00 0.00 0.00 0.00 0.00 0.00 0.00 0.00 0.00 0.00 0.00 0.00 0.00 0.00 0.00 0.00 0.00
0.03 0.02 0.02 0.03 0.02 0.02 0.01 0.01 0.00 0.00 0.00 0.00 0.00 0.00 0.00 0.00 0.00 0.00 0.00 0.00 0.00 0.00 0.00 0.00 0.00 0.00 0.00 0.00 0.00 0.00 0.00 0.00 0.00 0.00 0.00 0.00 0.00 0.00 0.00 0.00 0.00 0.00 0.00
0.02 0.01 0.02 0.03 0.03 0.02 0.01 0.01 0.01 0.00 0.00 0.00 0.00 0.00 0.00 0.00 0.00 0.00 0.00 0.00 0.00 0.00 0.00 0.00 0.00 0.00 0.00 0.00 0.00 0.00 0.00 0.00 0.00 0.00 0.00 0.00 0.00 0.00 0.00 0.00 0.00 0.00 0.00
0.03 0.02 0.01 0.02 0.03 0.02 0.02 0.01 0.01 0.00 0.00 0.00 0.00 0.00 0.00 0.00 0.00 0.00 0.00 0.00 0.00 0.00 0.00 0.00 0.00 0.00 0.00 0.00 0.00 0.00 0.00 0.00 0.00 0.00 0.00 0.00 0.00 0.00 0.00 0.00 0.00 0.00 0.00
0.04 0.04 0.03 0.02 0.03 0.03 0.03 0.02 0.01 0.01 0.00 0.00 0.00 0.00 0.00 0.00 0.00 0.00 0.00 0.00 0.00 0.00 0.00 0.00 0.00 0.00 0.00 0.00 0.00 0.00 0.00 0.00 0.00 0.00 0.00 0.00 0.00 0.00 0.00 0.00 0.00 0.00 0.00
0.03 0.03 0.04 0.04 0.03 0.04 0.03 0.03 0.02 0.02 0.01 0.00 0.00 0.00 0.00 0.00 0.00 0.00 0.00 0.00 0.00 0.00 0.00 0.00 0.00 0.00 0.00 0.00 0.00 0.00 0.00 0.00 0.00 0.00 0.00 0.00 0.00 0.00 0.00 0.00 0.00 0.00 0.00
0.03 0.03 0.02 0.03 0.03 0.03 0.03 0.03 0.02 0.02 0.01 0.01 0.01 0.01 0.00 0.00 0.00 0.00 0.00 0.00 0.00 0.00 0.00 0.00 0.00 0.00 0.00 0.00 0.00 0.00 0.00 0.00 0.00 0.00 0.00 0.00 0.00 0.00 0.00 0.00 0.00 0.00 0.00
0.04 0.03 0.03 0.02 0.03 0.04 0.05 0.04 0.03 0.03 0.02 0.01 0.01 0.01 0.01 0.00 0.00 0.00 0.00 0.00 0.00 0.00 0.00 0.00 0.00 0.00 0.00 0.00 0.00 0.00 0.00 0.00 0.00 0.00 0.00 0.00 0.00 0.00 0.00 0.00 0.00 0.00 0.00
0.05 0.05 0.04 0.03 0.03 0.03 0.04 0.03 0.03 0.03 0.02 0.01 0.01 0.01 0.01 0.01 0.00 0.00 0.00 0.00 0.00 0.00 0.00 0.00 0.00 0.00 0.00 0.00 0.00 0.00 0.00 0.00 0.00 0.00 0.00 0.00 0.00 0.00 0.00 0.00 0.00 0.00 0.00
0.05 0.04 0.05 0.03 0.02 0.02 0.03 0.03 0.02 0.02 0.02 0.01 0.01 0.01 0.01 0.01 0.00 0.00 0.00 0.00 0.00 0.00 0.00 0.00 0.00 0.00 0.00 0.00 0.01 0.01 0.00 0.00 0.00 0.00 0.00 0.00 0.00 0.00 0.00 0.00 0.00 0.00 0.00
0.08 0.08 0.08 0.05 0.03 0.02 0.03 0.03 0.02 0.02 0.02 0.02 0.02 0.02 0.01 0.01 0.00 0.00 0.00 0.00 0.00 0.00 0.00 0.00 0.00 0.00 0.00 0.00 0.00 0.00 0.00 0.00 0.00 0.00 0.00 0.00 0.00 0.00 0.00 0.00 0.00 0.00 0.00
MSLP
1015.32 1015.43 1015.44 1015.41 1015.37 1015.37 1015.42 1015.52 1015.65 1015.78 1015.89 1015.96 1015.99 1015.99 1015.99 1016.02 1016.08 1016.20 1016.36 1016.55 1016.76 1016.97 1017.17 1017.36 1017.55 1017.75 1017.95 1018.16 1018.37 1018.58 1018.78 1018.97 1019.14 1019.30 1019.46 1019.63 1019.81 1019.99 1020.18 1020.35 1020.49 1020.60 1020.69
1015.10 1015.26 1015.33 1015.34 1015.35 1015.38 1015.44 1015.54 1015.68 1015.81 1015.94 1016.03 1016.09 1016.13 1016.14 1016.16 1016.20 1016.27 1016.36 1016.49 1016.65 1016.82 1017.02 1017.23 1017.46 1017.69 1017.93 1018.16 1018.38 1018.57 1018.74 1018.89 1019.03 1019.17 1019.33 1019.50 1019.69 1019.90 1020.10 1020.28 1020.44 1020.55 1020.64
1014.81 1015.02 1015.16 1015.26 1015.34 1015.42 1015.51 1015.64 1015.78 1015.93 1016.06 1016.18 1016.27 1016.32 1016.36 1016.38 1016.40 1016.42 1016.46 1016.53 1016.63 1016.76 1016.94 1017.15 1017.39 1017.65 1017.91 1018.15 1018.36 1018.54 1018.67 1018.79 1018.89 1019.00 1019.13 1019.30 1019.50 1019.72 1019.94 1020.14 1020.31 1020.45 1020.55
1014.48 1014.76 1014.98 1015.18 1015.34 1015.50 1015.65 1015.80 1015.95 1016.10 1016.24 1016.37 1016.48 1016.56 1016.62 1016.66 1016.67 1016.67 1016.67 1016.68 1016.72 1016.81 1016.95 1017.14 1017.37 1017.63 1017.89 1018.13 1018.33 1018.48 1018.59 1018.66 1018.72 1018.79 1018.90 1019.06 1019.25 1019.48 1019.71 1019.93 1020.12 1020.28 1020.39
1014.18 1014.51 1014.82 1015.11 1015.37 1015.60 1015.81 1015.98 1016.14 1016.29 1016.43 1016.56 1016.69 1016.80 1016.89 1016.96 1016.99 1016.99 1016.97 1016.95 1016.94 1016.98 1017.06 1017.21 1017.41 1017.65 1017.89 1018.12 1018.30 1018.43 1018.50 1018.53 1018.56 1018.60 1018.68 1018.81 1018.99 1019.21 1019.45 1019.67 1019.88 1020.04 1020.18
1013.93 1014.31 1014.69 1015.07 1015.42 1015.72 1015.97 1016.16 1016.32 1016.45 1016.58 1016.71 1016.85 1016.99 1017.13 1017.24 1017.31 1017.34 1017.33 1017.29 1017.25 1017.24 1017.27 1017.36 1017.51 1017.71 1017.92 1018.11 1018.27 1018.37 1018.42 1018.43 1018.43 1018.44 1018.49 1018.59 1018.75 1018.95 1019.17 1019.39 1019.59 1019.76 1019.89
1013.77 1014.17 1014.60 1015.04 1015.45 1015.81 1016.09 1016.30 1016.45 1016.56 1016.66 1016.79 1016.94 1017.12 1017.30 1017.48 1017.61 1017.69 1017.70 1017.67 1017.60 1017.55 1017.52 1017.55 1017.64 1017.78 1017.94 1018.10 1018.24 1018.33 1018.36 1018.36 1018.34 1018.33 1018.36 1018.44 1018.56 1018.73 1018.92 1019.12 1019.29 1019.43 1019.55
1013.69 1014.09 1014.54 1015.02 1015.47 1015.87 1016.16 1016.37 1016.50 1016.60 1016.68 1016.80 1016.96 1017.18 1017.42 1017.66 1017.86 1017.99 1018.05 1018.03 1017.95 1017.86 1017.78 1017.74 1017.76 1017.84 1017.95 1018.08 1018.19 1018.27 1018.31 1018.31 1018.30 1018.28 1018.29 1018.34 1018.43 1018.56 1018.71 1018.85 1018.99 1019.09 1019.18
1013.67 1014.05 1014.50 1015.00 1015.47 1015.88 1016.19 1016.39 1016.51 1016.59 1016.66 1016.77 1016.95 1017.19 1017.48 1017.78 1018.04 1018.23 1018.33 1018.33 1018.25 1018.12 1017.99 1017.89 1017.84 1017.86 1017.92 1018.02 1018.12 1018.20 1018.25 1018.26 1018.26 1018.25 1018.26 1018.28 1018.34 1018.42 1018.52 1018.61 1018.69 1018.74 1018.78
1013.68 1014.03 1014.47 1014.96 1015.44 1015.86 1016.18 1016.38 1016.50 1016.57 1016.63 1016.75 1016.93 1017.19 1017.51 1017.85 1018.17 1018.40 1018.53 1018.54 1018.46 1018.31 1018.14 1017.98 1017.87 1017.83 1017.84 1017.90 1017.98 1018.07 1018.13 1018.17 1018.18 1018.19 1018.20 1018.21 1018.24 1018.28 1018.32 1018.36 1018.39 1018.39 1018.38
1013.68 1014.00 1014.43 1014.91 1015.40 1015.82 1016.15 1016.37 1016.50 1016.58 1016.65 1016.76 1016.95 1017.22 1017.55 1017.91 1018.24 1018.50 1018.64 1018.67 1018.58 1018.41 1018.21 1018.01 1017.84 1017.75 1017.71 1017.74 1017.80 1017.87 1017.94 1018.00 1018.03 1018.05 1018.06 1018.07 1018.08 1018.09 1018.10 1018.09 1018.07 1018.03 1017.99
1013.65 1013.96 1014.38 1014.86 1015.35 1015.79 1016.14 1016.39 1016.54 1016.63 1016.71 1016.83 1017.01 1017.27 1017.60 1017.95 1018.28 1018.54 1018.69 1018.72 1018.63 1018.45 1018.23 1017.99 1017.79 1017.65 1017.57 1017.55 1017.57 1017.62 1017.68 1017.73 1017.77 1017.80 1017.81 1017.82 1017.82 1017.82 1017.80 1017.77 1017.72 1017.66 1017.59
1013.58 1013.91 1014.33 1014.81 1015.30 1015.76 1016.14 1016.42 1016.61 1016.72 1016.82 1016.94 1017.11 1017.35 1017.64 1017.96 1018.27 1018.52 1018.66 1018.70 1018.62 1018.45 1018.23 1017.98 1017.75 1017.57 1017.45 1017.37 1017.35 1017.35 1017.37 1017.40 1017.42 1017.44 1017.45 1017.46 1017.46 1017.45 1017.43 1017.39 1017.34 1017.27 1017.19
1013.50 1013.84 1014.27 1014.76 1015.26 1015.74 1016.15 1016.47 1016.69 1016.83 1016.94 1017.05 1017.20 1017.41 1017.66 1017.94 1018.21 1018.44 1018.59 1018.63 1018.58 1018.44 1018.24 1018.01 1017.77 1017.56 1017.39 1017.26 1017.16 1017.10 1017.05 1017.02 1017.00 1016.99 1016.99 1016.99 1016.99 1016.99 1016.97 1016.95 1016.90 1016.84 1016.77
1013.40 1013.76 1014.20 1014.70 1015.22 1015.72 1016.16 1016.50 1016.75 1016.92 1017.03 1017.13 1017.26 1017.42 1017.62 1017.85 1018.09 1018.30 1018.46 1018.53 1018.53 1018.44 1018.28 1018.09 1017.87 1017.64 1017.43 1017.23 1017.06 1016.90 1016.77 1016.67 1016.58 1016.52 1016.49 1016.47 1016.47 1016.47 1016.46 1016.45 1016.41 1016.37 1016.31
1013.29 1013.68 1014.13 1014.64 1015.17 1015.68 1016.13 1016.49 1016.76 1016.94 1017.06 1017.14 1017.23 1017.35 1017.51 1017.70 1017.91 1018.11 1018.28 1018.40 1018.46 1018.44 1018.36 1018.22 1018.04 1017.81 1017.57 1017.31 1017.06 1016.81 1016.58 1016.37 1016.21 1016.08 1016.00 1015.95 1015.93 1015.92 1015.92 1015.91 1015.88 1015.84 1015.79
1013.17 1013.58 1014.04 1014.55 1015.08 1015.60 1016.05 1016.43 1016.71 1016.89 1017.00 1017.07 1017.13 1017.21 1017.32 1017.47 1017.66 1017.87 1018.07 1018.24 1018.37 1018.44 1018.45 1018.38 1018.24 1018.04 1017.78 1017.48 1017.15 1016.81 1016.48 1016.18 1015.92 1015.72 1015.57 1015.48 1015.42 1015.39 1015.37 1015.35 1015.31 1015.27 1015.21
1013.02 1013.44 1013.91 1014.43 1014.95 1015.46 1015.92 1016.30 1016.58 1016.76 1016.87 1016.92 1016.96 1017.00 1017.08 1017.21 1017.38 1017.59 1017.82 1018.04 1018.24 1018.40 1018.49 1018.49 1018.41 1018.24 1017.99 1017.66 1017.28 1016.87 1016.46 1016.07 1015.73 1015.45 1015.23 1015.08 1014.98 1014.90 1014.85 1014.79 1014.72 1014.64 1014.55
1012.84 1013.27 1013.74 1014.25 1014.77 1015.28 1015.73 1016.11 1016.39 1016.58 1016.68 1016.73 1016.75 1016.77 1016.83 1016.93 1017.09 1017.29 1017.54 1017.80 1018.05 1018.27 1018.43 1018.50 1018.48 1018.35 1018.11 1017.78 1017.38 1016.93 1016.47 1016.02 1015.61 1015.27 1014.99 1014.77 1014.60 1014.47 1014.35 1014.23 1014.11 1013.97 1013.84
1012.61 1013.04 1013.52 1014.03 1014.55 1015.05 1015.50 1015.88 1016.17 1016.36 1016.48 1016.53 1016.55 1016.56 1016.60 1016.68 1016.81 1017.00 1017.24 1017.50 1017.77 1018.02 1018.22 1018.34 1018.36 1018.27 1018.07 1017.76 1017.37 1016.92 1016.44 1015.96 1015.52 1015.13 1014.80 1014.52 1014.28 1014.08 1013.89 1013.70 1013.50 1013.29 1013.10
1012.34 1012.78 1013.26 1013.76 1014.28 1014.77 1015.23 1015.61 1015.91 1016.12 1016.26 1016.33 1016.36 1016.38 1016.41 1016.46 1016.56 1016.71 1016.91 1017.15 1017.39 1017.63 1017.84 1017.98 1018.03 1017.98 1017.82 1017.55 1017.20 1016.78 1016.32 1015.86 1015.41 1015.00 1014.63 1014.30 1014.01 1013.73 1013.46 1013.19 1012.91 1012.63 1012.37
1012.05 1012.49 1012.96 1013.46 1013.97 1014.46 1014.91 1015.30 1015.62 1015.86 1016.03 1016.13 1016.19 1016.22 1016.24 1016.28 1016.34 1016.43 1016.57 1016.74 1016.92 1017.11 1017.29 1017.42 1017.48 1017.46 1017.34 1017.14 1016.84 1016.49 1016.08 1015.66 1015.24 1014.83 1014.45 1014.09 1013.75 1013.41 1013.07 1012.73 1012.37 1012.03 1011.70
1011.75 1012.19 1012.66 1013.14 1013.63 1014.11 1014.55 1014.94 1015.28 1015.55 1015.75 1015.90 1015.99 1016.05 1016.08 1016.09 1016.11 1016.14 1016.20 1016.28 1016.38 1016.49 1016.61 1016.70 1016.76 1016.76 1016.69 1016.54 1016.33 1016.05 1015.72 1015.36 1014.99 1014.61 1014.23 1013.86 1013.49 1013.11 1012.72 1012.32 1011.91 1011.51 1011.13
1011.47 1011.89 1012.34 1012.80 1013.25 1013.70 1014.11 1014.50 1014.84 1015.14 1015.39 1015.58 1015.72 1015.81 1015.86 1015.87 1015.85 1015.82 1015.80 1015.79 1015.80 1015.82 1015.87 1015.92 1015.95 1015.96 1015.93 1015.85 1015.71 1015.51 1015.27 1014.98 1014.66 1014.32 1013.97 1013.60 1013.22 1012.82 1012.41 1011.98 1011.54 1011.11 1010.69
1011.20 1011.60 1012.01 1012.42 1012.82 1013.22 1013.59 1013.95 1014.30 1014.61 1014.89 1015.14 1015.33 1015.46 1015.54 1015.56 1015.53 1015.47 1015.38 1015.30 1015.22 1015.17 1015.15 1015.15 1015.17 1015.18 1015.18 1015.15 1015.07 1014.95 1014.77 1014.55 1014.29 1014.00 1013.67 1013.32 1012.95 1012.55 1012.14 1011.70 1011.26 1010.82 1010.39
1010.91 1011.29 1011.66 1012.00 1012.34 1012.66 1012.98 1013.30 1013.62 1013.94 1014.26 1014.54 1014.79 1014.98 1015.11 1015.16 1015.15 1015.07 1014.96 1014.83 1014.71 1014.61 1014.54 1014.51 1014.50 1014.52 1014.53 1014.53 1014.50 1014.43 1014.30 1014.13 1013.91 1013.65 1013.35 1013.03 1012.67 1012.29 1011.89 1011.48 1011.04 1010.61 1010.18
Thickness
5751 5750 5749 5748 5747 5745 5744 5743 5742 5741 5740 5739 5738 5737 5735 5734 5732 5731 5730 5729 5727 5726 5725 5724 5722 5721 5719 5718 5717 5716 5714 5713 5713 5712 5712 5711 5711 5710 5709 5708 5708 5707 5705
5751 5749 5748 5748 5746 5745 5744 5743 5741 5740 5739 5738 5737 5735 5734 5732 5731 5730 5729 5728 5726 5725 5724 5722 5721 5719 5718 5716 5715 5714 5713 5712 5711 5710 5710 5709 5709 5708 5707 5707 5706 5705 5704
5751 5749 5747 5747 5746 5745 5744 5742 5741 5739 5738 5737 5735 5733 5732 5731 5729 5728 5728 5727 5725 5724 5722 5721 5720 5718 5716 5715 5713 5712 5711 5710 5709 5708 5708 5707 5707 5706 5705 5705 5704 5703 5702
5750 5749 5747 5746 5746 5745 5744 5742 5739 5737 5735 5734 5733 5732 5730 5729 5728 5728 5727 5726 5724 5723 5722 5720 5719 5717 5715 5713 5712 5711 5710 5708 5707 5707 5706 5705 5704 5704 5703 5702 5701 5700 5699
5750 5748 5747 5747 5746 5744 5743 5742 5739 5736 5734 5733 5732 5730 5730 5729 5728 5727 5726 5725 5724 5723 5721 5720 5718 5716 5715 5713 5712 5711 5709 5708 5707 5705 5704 5703 5703 5702 5701 5700 5699 5698 5697
5749 5748 5747 5746 5745 5743 5741 5740 5737 5736 5734 5732 5732 5729 5728 5728 5728 5727 5726 5725 5724 5722 5721 5720 5718 5716 5715 5713 5712 5711 5709 5708 5706 5705 5704 5702 5701 5700 5699 5698 5697 5696 5695
5748 5747 5746 5745 5744 5742 5740 5739 5737 5734 5732 5732 5727 5723 5725 5727 5726 5726 5726 5725 5724 5723 5721 5720 5718 5716 5715 5714 5712 5711 5710 5708 5707 5705 5704 5702 5701 5700 5698 5697 5696 5695 5694
5746 5746 5745 5744 5743 5741 5739 5738 5737 5733 5731 5731 5726 5719 5714 5716 5722 5726 5725 5725 5724 5723 5722 5720 5718 5717 5715 5714 5713 5712 5711 5709 5708 5706 5704 5702 5701 5699 5698 5697 5696 5694 5693
5746 5745 5744 5743 5742 5741 5738 5738 5737 5734 5729 5730 5730 5724 5714 5710 5715 5720 5723 5724 5724 5723 5722 5720 5719 5717 5716 5715 5714 5712 5711 5709 5708 5706 5705 5703 5701 5699 5698 5696 5695 5694 5692
5744 5744 5744 5742 5741 5740 5739 5738 5737 5735 5732 5728 5729 5730 5727 5723 5716 5713 5717 5721 5722 5722 5722 5721 5719 5718 5717 5715 5714 5713 5711 5709 5708 5706 5705 5703 5702 5700 5698 5696 5694 5693 5692
5742 5742 5742 5741 5740 5739 5739 5738 5737 5736 5734 5731 5729 5728 5727 5725 5723 5716 5711 5715 5718 5721 5721 5721 5720 5718 5717 5715 5714 5712 5711 5709 5708 5706 5705 5703 5701 5700 5698 5696 5694 5693 5692
5739 5740 5740 5740 5739 5739 5738 5738 5737 5736 5734 5733 5731 5730 5727 5724 5721 5718 5713 5712 5713 5717 5720 5720 5719 5718 5717 5715 5714 5712 5710 5709 5707 5705 5704 5702 5701 5699 5698 5696 5694 5693 5692
5735 5737 5738 5738 5738 5737 5737 5737 5735 5735 5734 5732 5731 5730 5730 5728 5727 5722 5717 5713 5712 5713 5716 5717 5718 5718 5716 5715 5713 5711 5710 5708 5706 5704 5703 5701 5700 5699 5697 5696 5694 5693 5692
5736 5736 5737 5736 5736 5736 5736 5735 5734 5733 5733 5732 5731 5730 5729 5728 5728 5726 5721 5715 5708 5708 5710 5713 5716 5716 5716 5714 5713 5711 5709 5707 5705 5704 5702 5701 5699 5698 5696 5695 5694 5692 5691
5736 5735 5735 5734 5734 5734 5734 5733 5732 5732 5731 5730 5730 5729 5728 5727 5727 5727 5725 5722 5713 5704 5704 5709 5712 5715 5714 5713 5711 5709 5707 5706 5704 5703 5701 5700 5698 5697 5696 5694 5693 5691 5690
5735 5733 5732 5732 5732 5732 5732 5731 5731 5730 5729 5728 5728 5727 5726 5725 5725 5725 5724 5722 5719 5712 5705 5708 5710 5713 5713 5711 5710 5708 5706 5704 5703 5701 5700 5699 5697 5696 5694 5693 5692 5690 5689
5733 5732 5731 5730 5730 5730 5730 5729 5729 5728 5727 5726 5726 5725 5724 5724 5722 5721 5721 5719 5716 5713 5706 5706 5709 5711 5710 5708 5707 5705 5703 5702 5701 5700 5699 5698 5696 5695 5693 5692 5690 5688 5687
5732 5731 5730 5729 5729 5728 5728 5727 5726 5726 5725 5724 5723 5722 5721 5722 5720 5718 5717 5716 5714 5712 5708 5703 5704 5705 5706 5705 5703 5701 5701 5700 5699 5698 5697 5696 5695 5693 5692 5690 5688 5686 5685
5730 5729 5728 5727 5727 5727 5726 5726 5725 5725 5724 5723 5722 5721 5720 5718 5716 5715 5714 5712 5710 5710 5707 5702 5700 5700 5700 5700 5698 5697 5697 5697 5696 5696 5695 5694 5693 5691 5689 5688 5686 5684 5683
5728 5727 5727 5726 5726 5725 5725 5724 5724 5723 5721 5721 5721 5720 5719 5717 5715 5713 5711 5709 5707 5704 5702 5698 5695 5694 5694 5695 5693 5690 5689 5690 5690 5692 5691 5690 5689 5687 5686 5684 5683 5681 5679
5728 5727 5726 5725 5725 5724 5724 5723 5722 5721 5719 5718 5718 5718 5718 5717 5715 5713 5710 5706 5703 5699 5696 5693 5690 5688 5687 5687 5686 5685 5683 5683 5684 5685 5684 5684 5683 5682 5681 5680 5679 5678 5676
5727 5725 5724 5724 5723 5724 5725 5723 5721 5719 5718 5716 5715 5715 5715 5714 5713 5711 5709 5706 5703 5698 5692 5689 5686 5683 5683 5682 5682 5680 5676 5674 5672 5678 5676 5676 5677 5676 5676 5675 5674 5673 5671
5725 5724 5723 5723 5722 5723 5723 5721 5720 5718 5716 5714 5713 5712 5712 5712 5709 5707 5705 5703 5700 5698 5695 5690 5684 5682 5680 5679 5677 5674 5671 5669 5668 5671 5669 5669 5670 5669 5671 5670 5669 5667 5665
5725 5724 5722 5722 5721 5721 5720 5719 5718 5716 5714 5713 5712 5710 5708 5707 5706 5702 5699 5697 5695 5693 5691 5688 5685 5683 5681 5678 5675 5672 5669 5666 5666 5666 5663 5660 5664 5663 5666 5665 5663 5661 5659
5725 5723 5723 5721 5719 5719 5719 5717 5715 5713 5711 5710 5710 5708 5705 5703 5702 5699 5695 5691 5689 5688 5688 5686 5683 5680 5678 5674 5671 5665 5661 5657 5656 5658 5657 5654 5656 5655 5656 5656 5656 5653 5651
5724 5722 5721 5720 5719 5718 5717 5715 5713 5710 5707 5705 5704 5703 5702 5700 5698 5695 5691 5687 5683 5683 5682 5680 5677 5675 5672 5670 5666 5662 5658 5652 5650 5649 5652 5647 5646 5643 5642 5647 5646 5644 5641